Time,TemperatureF,DewpointF,PressureIn,WindDirection,WindDirectionDegrees,WindSpeedMPH,WindSpeedGustMPH,Humidity,HourlyPrecipIn,Conditions,Clouds,dailyrainin,SoftwareType,DateUTC
2013-06-21 00:02:00,81.1,67.8,29.76,South,186,17.0,21.0,64,0.00,,,0.00,Wunderground v.1.15,2013-06-21 05:02:00,
2013-06-21 00:08:00,80.9,68.0,29.76,South,184,17.0,24.0,65,0.00,,,0.00,Wunderground v.1.15,2013-06-21 05:08:00,
2013-06-21 00:14:00,80.9,67.6,29.76,South,178,17.0,23.0,64,0.00,,,0.00,Wunderground v.1.15,2013-06-21 05:14:00,
2013-06-21 00:19:00,80.8,67.5,29.76,South,171,18.0,23.0,64,0.00,,,0.00,Wunderground v.1.15,2013-06-21 05:19:00,
2013-06-21 00:25:00,80.5,68.1,29.76,South,175,17.0,24.0,66,0.00,,,0.00,Wunderground v.1.15,2013-06-21 05:25:00,
2013-06-21 00:30:00,80.3,68.3,29.76,SSE,167,16.0,16.0,67,0.00,,,0.00,Wunderground v.1.15,2013-06-21 05:30:00,
2013-06-21 00:35:00,80.1,68.6,29.76,South,171,15.0,21.0,68,0.00,,,0.00,Wunderground v.1.15,2013-06-21 05:35:00,
2013-06-21 00:41:00,79.8,68.7,29.76,SSE,161,15.0,18.0,69,0.00,,,0.00,Wunderground v.1.15,2013-06-21 05:41:00,
2013-06-21 00:46:00,79.6,69.0,29.76,SSE,166,15.0,20.0,70,0.00,,,0.00,Wunderground v.1.15,2013-06-21 05:46:00,
2013-06-21 00:51:00,79.4,69.2,29.76,South,173,16.0,19.0,71,0.00,,,0.00,Wunderground v.1.15,2013-06-21 05:51:00,
2013-06-21 00:57:00,79.3,69.1,29.76,South,180,15.0,19.0,71,0.00,,,0.00,Wunderground v.1.15,2013-06-21 05:57:00,
2013-06-21 01:02:00,79.3,69.1,29.76,SSE,154,15.0,17.0,71,0.00,,,0.00,Wunderground v.1.15,2013-06-21 06:02:00,
2013-06-21 01:08:00,79.1,68.9,29.76,SSE,161,14.0,22.0,71,0.00,,,0.00,Wunderground v.1.15,2013-06-21 06:08:00,
2013-06-21 01:13:00,79.1,68.9,29.76,SSE,168,14.0,18.0,71,0.00,,,0.00,Wunderground v.1.15,2013-06-21 06:13:00,
2013-06-21 01:19:00,79.1,68.9,29.76,SSE,156,15.0,22.0,71,0.00,,,0.00,Wunderground v.1.15,2013-06-21 06:19:00,
2013-06-21 01:24:00,79.1,68.9,29.75,South,172,15.0,19.0,71,0.00,,,0.00,Wunderground v.1.15,2013-06-21 06:24:00,
2013-06-21 01:30:00,79.0,68.8,29.75,South,169,15.0,20.0,71,0.00,,,0.00,Wunderground v.1.15,2013-06-21 06:30:00,
2013-06-21 01:35:00,79.0,68.8,29.75,SSE,161,15.0,21.0,71,0.00,,,0.00,Wunderground v.1.15,2013-06-21 06:35:00,
2013-06-21 01:41:00,78.9,68.7,29.75,SSE,153,15.0,20.0,71,0.00,,,0.00,Wunderground v.1.15,2013-06-21 06:41:00,
2013-06-21 01:46:00,78.9,68.7,29.75,SSE,167,15.0,22.0,71,0.00,,,0.00,Wunderground v.1.15,2013-06-21 06:46:00,
2013-06-21 01:51:00,78.9,68.7,29.75,South,191,16.0,22.0,71,0.00,,,0.00,Wunderground v.1.15,2013-06-21 06:51:00,
2013-06-21 01:57:00,79.1,68.9,29.75,South,182,18.0,24.0,71,0.00,,,0.00,Wunderground v.1.15,2013-06-21 06:57:00,
2013-06-21 02:02:00,78.8,68.6,29.75,South,175,17.0,22.0,71,0.00,,,0.00,Wunderground v.1.15,2013-06-21 07:02:00,
2013-06-21 02:08:00,78.5,68.7,29.75,SSE,166,15.0,22.0,72,0.00,,,0.00,Wunderground v.1.15,2013-06-21 07:08:00,
2013-06-21 02:14:00,78.4,68.6,29.74,South,183,15.0,19.0,72,0.00,,,0.00,Wunderground v.1.15,2013-06-21 07:14:00,
2013-06-21 02:19:00,78.4,68.6,29.74,South,185,16.0,21.0,72,0.00,,,0.00,Wunderground v.1.15,2013-06-21 07:19:00,
2013-06-21 02:25:00,78.6,68.4,29.74,South,173,17.0,24.0,71,0.00,,,0.00,Wunderground v.1.15,2013-06-21 07:25:00,
2013-06-21 02:30:00,78.6,68.4,29.74,SSE,167,18.0,18.0,71,0.00,,,0.00,Wunderground v.1.15,2013-06-21 07:30:00,
2013-06-21 02:35:00,78.5,68.3,29.73,SSE,163,18.0,23.0,71,0.00,,,0.00,Wunderground v.1.15,2013-06-21 07:35:00,
2013-06-21 02:41:00,78.3,68.1,29.74,South,180,18.0,21.0,71,0.00,,,0.00,Wunderground v.1.15,2013-06-21 07:41:00,
2013-06-21 02:46:00,78.3,68.1,29.74,South,173,18.0,23.0,71,0.00,,,0.00,Wunderground v.1.15,2013-06-21 07:46:00,
2013-06-21 02:51:00,78.3,68.1,29.73,South,181,18.0,22.0,71,0.00,,,0.00,Wunderground v.1.15,2013-06-21 07:51:00,
2013-06-21 02:57:00,78.2,68.0,29.73,South,174,17.0,22.0,71,0.00,,,0.00,Wunderground v.1.15,2013-06-21 07:57:00,
2013-06-21 03:02:00,78.3,68.1,29.73,South,173,17.0,23.0,71,0.00,,,0.00,Wunderground v.1.15,2013-06-21 08:02:00,
2013-06-21 03:08:00,78.4,67.8,29.73,South,180,18.0,27.0,70,0.00,,,0.00,Wunderground v.1.15,2013-06-21 08:08:00,
2013-06-21 03:13:00,78.4,68.2,29.73,SSE,168,18.0,21.0,71,0.00,,,0.00,Wunderground v.1.15,2013-06-21 08:13:00,
2013-06-21 03:18:00,78.2,68.0,29.73,SSE,166,17.0,22.0,71,0.00,,,0.00,Wunderground v.1.15,2013-06-21 08:18:00,
2013-06-21 03:24:00,78.1,67.9,29.73,South,182,18.0,22.0,71,0.00,,,0.00,Wunderground v.1.15,2013-06-21 08:24:00,
2013-06-21 03:29:00,78.0,67.8,29.73,South,173,19.0,24.0,71,0.00,,,0.00,Wunderground v.1.15,2013-06-21 08:29:00,
2013-06-21 03:35:00,77.9,67.7,29.73,South,187,18.0,22.0,71,0.00,,,0.00,Wunderground v.1.15,2013-06-21 08:35:00,
2013-06-21 03:40:00,77.7,68.0,29.73,South,171,18.0,21.0,72,0.00,,,0.00,Wunderground v.1.15,2013-06-21 08:40:00,
2013-06-21 03:46:00,77.6,67.9,29.73,South,185,18.0,25.0,72,0.00,,,0.00,Wunderground v.1.15,2013-06-21 08:46:00,
2013-06-21 03:51:00,77.4,68.1,29.73,South,182,17.0,21.0,73,0.00,,,0.00,Wunderground v.1.15,2013-06-21 08:51:00,
2013-06-21 03:56:00,77.3,68.0,29.73,South,172,16.0,22.0,73,0.00,,,0.00,Wunderground v.1.15,2013-06-21 08:56:00,
2013-06-21 04:02:00,77.3,68.0,29.73,South,178,17.0,24.0,73,0.00,,,0.00,Wunderground v.1.15,2013-06-21 09:02:00,
2013-06-21 04:08:00,77.3,68.0,29.73,South,183,17.0,24.0,73,0.00,,,0.00,Wunderground v.1.15,2013-06-21 09:08:00,
2013-06-21 04:13:00,77.2,67.9,29.73,SSW,197,16.0,18.0,73,0.00,,,0.00,Wunderground v.1.15,2013-06-21 09:13:00,
2013-06-21 04:19:00,76.8,67.9,29.73,South,176,16.0,20.0,74,0.00,,,0.00,Wunderground v.1.15,2013-06-21 09:19:00,
2013-06-21 04:24:00,76.5,68.0,29.73,South,176,17.0,22.0,75,0.00,,,0.00,Wunderground v.1.15,2013-06-21 09:24:00,
2013-06-21 04:30:00,76.4,67.9,29.73,South,180,18.0,22.0,75,0.00,,,0.00,Wunderground v.1.15,2013-06-21 09:30:00,
2013-06-21 04:35:00,76.4,67.9,29.74,South,188,19.0,22.0,75,0.00,,,0.00,Wunderground v.1.15,2013-06-21 09:35:00,
2013-06-21 04:41:00,76.6,67.7,29.74,South,178,18.0,24.0,74,0.00,,,0.00,Wunderground v.1.15,2013-06-21 09:41:00,
2013-06-21 04:46:00,76.6,67.7,29.74,South,189,19.0,25.0,74,0.00,,,0.00,Wunderground v.1.15,2013-06-21 09:46:00,
2013-06-21 04:52:00,76.9,67.6,29.74,SSE,167,19.0,22.0,73,0.00,,,0.00,Wunderground v.1.15,2013-06-21 09:52:00,
2013-06-21 04:57:00,77.2,67.5,29.74,South,170,18.0,23.0,72,0.00,,,0.00,Wunderground v.1.15,2013-06-21 09:57:00,
2013-06-21 05:02:00,77.1,67.4,29.74,South,174,18.0,24.0,72,0.00,,,0.00,Wunderground v.1.15,2013-06-21 10:02:00,
2013-06-21 05:08:00,77.1,67.8,29.74,South,171,18.0,24.0,73,0.00,,,0.00,Wunderground v.1.15,2013-06-21 10:08:00,
2013-06-21 05:13:00,77.1,67.4,29.74,South,189,18.0,22.0,72,0.00,,,0.00,Wunderground v.1.15,2013-06-21 10:13:00,
2013-06-21 05:18:00,77.0,67.3,29.74,SSE,168,18.0,23.0,72,0.00,,,0.00,Wunderground v.1.15,2013-06-21 10:18:00,
2013-06-21 05:24:00,76.9,67.6,29.74,South,172,16.0,19.0,73,0.00,,,0.00,Wunderground v.1.15,2013-06-21 10:24:00,
2013-06-21 05:29:00,76.9,67.6,29.74,South,172,16.0,24.0,73,0.00,,,0.00,Wunderground v.1.15,2013-06-21 10:29:00,
2013-06-21 05:35:00,76.6,67.7,29.74,South,183,16.0,21.0,74,0.00,,,0.00,Wunderground v.1.15,2013-06-21 10:35:00,
2013-06-21 05:40:00,76.3,67.4,29.75,South,173,15.0,20.0,74,0.00,,,0.00,Wunderground v.1.15,2013-06-21 10:40:00,
2013-06-21 05:46:00,76.2,67.3,29.75,South,181,15.0,21.0,74,0.00,,,0.00,Wunderground v.1.15,2013-06-21 10:46:00,
2013-06-21 05:51:00,76.0,67.5,29.75,South,179,14.0,16.0,75,0.00,,,0.00,Wunderground v.1.15,2013-06-21 10:51:00,
2013-06-21 05:57:00,76.1,67.2,29.75,SSE,158,14.0,18.0,74,0.00,,,0.00,Wunderground v.1.15,2013-06-21 10:57:00,
2013-06-21 06:02:00,76.0,67.5,29.75,SSE,161,15.0,21.0,75,0.00,,,0.00,Wunderground v.1.15,2013-06-21 11:02:00,
2013-06-21 06:08:00,75.9,67.4,29.75,SSE,168,15.0,21.0,75,0.00,,,0.00,Wunderground v.1.15,2013-06-21 11:08:00,
2013-06-21 06:13:00,76.0,67.5,29.76,South,169,16.0,22.0,75,0.00,,,0.00,Wunderground v.1.15,2013-06-21 11:13:00,
2013-06-21 06:19:00,75.9,67.4,29.75,South,169,15.0,22.0,75,0.00,,,0.00,Wunderground v.1.15,2013-06-21 11:19:00,
2013-06-21 06:25:00,75.8,67.3,29.76,SSE,164,15.0,19.0,75,0.00,,,0.00,Wunderground v.1.15,2013-06-21 11:25:00,
2013-06-21 06:30:00,75.7,67.2,29.76,South,184,14.0,19.0,75,0.00,,,0.00,Wunderground v.1.15,2013-06-21 11:30:00,
2013-06-21 06:35:00,75.8,67.3,29.76,South,171,15.0,22.0,75,0.00,,,0.00,Wunderground v.1.15,2013-06-21 11:35:00,
2013-06-21 06:41:00,75.8,67.3,29.75,SSE,167,15.0,19.0,75,0.00,,,0.00,Wunderground v.1.15,2013-06-21 11:41:00,
2013-06-21 06:46:00,76.0,67.5,29.76,SSE,165,16.0,22.0,75,0.00,,,0.00,Wunderground v.1.15,2013-06-21 11:46:00,
2013-06-21 06:51:00,75.9,67.4,29.76,South,180,15.0,19.0,75,0.00,,,0.00,Wunderground v.1.15,2013-06-21 11:51:00,
2013-06-21 06:57:00,76.1,67.6,29.76,SSE,167,15.0,21.0,75,0.00,,,0.00,Wunderground v.1.15,2013-06-21 11:57:00,
2013-06-21 07:02:00,76.1,67.6,29.76,South,186,15.0,18.0,75,0.00,,,0.00,Wunderground v.1.15,2013-06-21 12:02:00,
2013-06-21 07:08:00,76.0,67.5,29.76,South,173,15.0,20.0,75,0.00,,,0.00,Wunderground v.1.15,2013-06-21 12:08:00,
2013-06-21 07:13:00,75.9,67.4,29.76,SSE,168,15.0,21.0,75,0.00,,,0.00,Wunderground v.1.15,2013-06-21 12:13:00,
2013-06-21 07:18:00,75.8,67.3,29.76,South,177,15.0,22.0,75,0.00,,,0.00,Wunderground v.1.15,2013-06-21 12:18:00,
2013-06-21 07:24:00,75.9,67.4,29.76,South,185,15.0,18.0,75,0.00,,,0.00,Wunderground v.1.15,2013-06-21 12:24:00,
2013-06-21 07:30:00,76.1,67.6,29.76,SSE,165,16.0,16.0,75,0.00,,,0.00,Wunderground v.1.15,2013-06-21 12:30:00,
2013-06-21 07:35:00,76.2,67.7,29.76,South,183,15.0,18.0,75,0.00,,,0.00,Wunderground v.1.15,2013-06-21 12:35:00,
2013-06-21 07:41:00,76.4,67.5,29.76,South,182,15.0,20.0,74,0.00,,,0.00,Wunderground v.1.15,2013-06-21 12:41:00,
2013-06-21 07:46:00,76.7,67.8,29.76,South,178,15.0,20.0,74,0.00,,,0.00,Wunderground v.1.15,2013-06-21 12:46:00,
2013-06-21 07:52:00,77.1,67.8,29.76,SSE,163,15.0,19.0,73,0.00,,,0.00,Wunderground v.1.15,2013-06-21 12:52:00,
2013-06-21 07:57:00,77.6,67.9,29.76,South,184,15.0,20.0,72,0.00,,,0.00,Wunderground v.1.15,2013-06-21 12:57:00,
2013-06-21 08:02:00,78.1,67.9,29.76,South,177,16.0,23.0,71,0.00,,,0.00,Wunderground v.1.15,2013-06-21 13:02:00,
2013-06-21 08:08:00,78.5,67.9,29.76,SSE,163,17.0,23.0,70,0.00,,,0.00,Wunderground v.1.15,2013-06-21 13:08:00,
2013-06-21 08:13:00,78.9,67.9,29.77,South,191,16.0,20.0,69,0.00,,,0.00,Wunderground v.1.15,2013-06-21 13:13:00,
2013-06-21 08:19:00,79.1,68.1,29.77,South,175,15.0,20.0,69,0.00,,,0.00,Wunderground v.1.15,2013-06-21 13:19:00,
2013-06-21 08:24:00,79.3,68.2,29.76,South,182,15.0,20.0,69,0.00,,,0.00,Wunderground v.1.15,2013-06-21 13:24:00,
2013-06-21 08:30:00,79.9,68.0,29.77,South,178,16.0,21.0,67,0.00,,,0.00,Wunderground v.1.15,2013-06-21 13:30:00,
2013-06-21 08:35:00,80.0,67.6,29.77,SSW,194,17.0,25.0,66,0.00,,,0.00,Wunderground v.1.15,2013-06-21 13:35:00,
2013-06-21 08:41:00,80.0,67.6,29.77,South,182,17.0,22.0,66,0.00,,,0.00,Wunderground v.1.15,2013-06-21 13:41:00,
2013-06-21 08:46:00,79.9,68.0,29.77,South,180,17.0,25.0,67,0.00,,,0.00,Wunderground v.1.15,2013-06-21 13:46:00,
2013-06-21 08:51:00,80.1,67.7,29.77,South,186,17.0,25.0,66,0.00,,,0.00,Wunderground v.1.15,2013-06-21 13:51:00,
2013-06-21 08:57:00,80.3,68.3,29.77,South,182,16.0,25.0,67,0.00,,,0.00,Wunderground v.1.15,2013-06-21 13:57:00,
2013-06-21 09:02:00,80.3,67.9,29.77,South,189,16.0,20.0,66,0.00,,,0.00,Wunderground v.1.15,2013-06-21 14:02:00,
2013-06-21 09:08:00,80.5,68.1,29.77,South,184,16.0,24.0,66,0.00,,,0.00,Wunderground v.1.15,2013-06-21 14:08:00,
2013-06-21 09:13:00,80.7,67.8,29.77,SSW,198,15.0,25.0,65,0.00,,,0.00,Wunderground v.1.15,2013-06-21 14:13:00,
2013-06-21 09:19:00,80.9,68.0,29.77,South,178,15.0,25.0,65,0.00,,,0.00,Wunderground v.1.15,2013-06-21 14:19:00,
2013-06-21 09:25:00,81.1,68.2,29.77,SSW,199,15.0,21.0,65,0.00,,,0.00,Wunderground v.1.15,2013-06-21 14:25:00,
2013-06-21 09:30:00,81.4,68.1,29.77,South,190,15.0,23.0,64,0.00,,,0.00,Wunderground v.1.15,2013-06-21 14:30:00,
2013-06-21 09:35:00,81.9,68.1,29.77,South,190,16.0,23.0,63,0.00,,,0.00,Wunderground v.1.15,2013-06-21 14:35:00,
2013-06-21 09:41:00,82.8,68.4,29.76,South,173,16.0,24.0,62,0.00,,,0.00,Wunderground v.1.15,2013-06-21 14:41:00,
2013-06-21 09:46:00,83.2,68.8,29.77,SSW,197,16.0,24.0,62,0.00,,,0.00,Wunderground v.1.15,2013-06-21 14:46:00,
2013-06-21 09:52:00,83.6,68.2,29.77,South,189,16.0,19.0,60,0.00,,,0.00,Wunderground v.1.15,2013-06-21 14:52:00,
2013-06-21 09:58:00,84.3,68.4,29.77,SSW,194,17.0,22.0,59,0.00,,,0.00,Wunderground v.1.15,2013-06-21 14:58:00,
2013-06-21 10:03:00,84.9,69.0,29.77,SSW,202,17.0,21.0,59,0.00,,,0.00,Wunderground v.1.15,2013-06-21 15:03:00,
2013-06-21 10:08:00,85.9,68.9,29.77,SSW,194,15.0,22.0,57,0.00,,,0.00,Wunderground v.1.15,2013-06-21 15:08:00,
2013-06-21 10:14:00,86.3,68.8,29.77,SSW,208,16.0,26.0,56,0.00,,,0.00,Wunderground v.1.15,2013-06-21 15:14:00,
2013-06-21 10:20:00,86.4,68.3,29.77,South,178,17.0,22.0,55,0.00,,,0.00,Wunderground v.1.15,2013-06-21 15:20:00,
2013-06-21 10:25:00,86.1,68.6,29.77,South,185,19.0,27.0,56,0.00,,,0.00,Wunderground v.1.15,2013-06-21 15:25:00,
2013-06-21 10:31:00,86.4,68.8,29.77,SSW,199,20.0,25.0,56,0.00,,,0.00,Wunderground v.1.15,2013-06-21 15:31:00,
2013-06-21 10:36:00,86.3,68.2,29.77,South,184,19.0,30.0,55,0.00,,,0.00,Wunderground v.1.15,2013-06-21 15:36:00,
2013-06-21 10:43:00,86.4,67.8,29.77,SW,215,17.0,18.0,54,0.00,,,0.00,Wunderground v.1.15,2013-06-21 15:43:00,
2013-06-21 10:48:00,86.5,68.4,29.78,South,172,18.0,26.0,55,0.00,,,0.00,Wunderground v.1.15,2013-06-21 15:48:00,
2013-06-21 10:54:00,87.0,68.9,29.77,South,188,19.0,25.0,55,0.00,,,0.00,Wunderground v.1.15,2013-06-21 15:54:00,
2013-06-21 11:00:00,87.3,69.2,29.77,SSW,195,18.0,19.0,55,0.00,,,0.00,Wunderground v.1.15,2013-06-21 16:00:00,
2013-06-21 11:05:00,87.8,68.5,29.77,SSW,197,18.0,28.0,53,0.00,,,0.00,Wunderground v.1.15,2013-06-21 16:05:00,
2013-06-21 11:11:00,87.9,68.6,29.77,SSW,198,20.0,25.0,53,0.00,,,0.00,Wunderground v.1.15,2013-06-21 16:11:00,
2013-06-21 11:17:00,87.8,68.5,29.77,SSW,195,21.0,32.0,53,0.00,,,0.00,Wunderground v.1.15,2013-06-21 16:17:00,
2013-06-21 11:22:00,88.2,68.9,29.77,SSW,206,21.0,26.0,53,0.00,,,0.00,Wunderground v.1.15,2013-06-21 16:22:00,
2013-06-21 11:29:00,88.3,68.4,29.77,South,191,20.0,28.0,52,0.00,,,0.00,Wunderground v.1.15,2013-06-21 16:29:00,
2013-06-21 11:35:00,88.5,68.6,29.77,SSW,208,18.0,26.0,52,0.00,,,0.00,Wunderground v.1.15,2013-06-21 16:35:00,
2013-06-21 11:43:00,89.3,68.8,29.77,South,173,17.0,21.0,51,0.00,,,0.00,Wunderground v.1.15,2013-06-21 16:43:00,
2013-06-21 11:49:00,88.8,68.9,29.77,South,186,18.0,29.0,52,0.00,,,0.00,Wunderground v.1.15,2013-06-21 16:49:00,
2013-06-21 11:54:00,88.7,69.4,29.77,SSW,197,17.0,25.0,53,0.00,,,0.00,Wunderground v.1.15,2013-06-21 16:54:00,
2013-06-21 12:00:00,88.8,68.3,29.77,South,175,17.0,25.0,51,0.00,,,0.00,Wunderground v.1.15,2013-06-21 17:00:00,
2013-06-21 12:06:00,88.6,68.7,29.77,South,182,20.0,25.0,52,0.00,,,0.00,Wunderground v.1.15,2013-06-21 17:06:00,
2013-06-21 12:14:00,89.0,69.1,29.77,South,180,21.0,27.0,52,0.00,,,0.00,Wunderground v.1.15,2013-06-21 17:14:00,
2013-06-21 12:20:00,90.4,68.6,29.77,South,187,20.0,20.0,49,0.00,,,0.00,Wunderground v.1.15,2013-06-21 17:20:00,
2013-06-21 12:26:00,91.0,69.8,29.76,South,189,20.0,25.0,50,0.00,,,0.00,Wunderground v.1.15,2013-06-21 17:26:00,
2013-06-21 12:31:00,91.0,68.6,29.77,SSW,194,18.0,22.0,48,0.00,,,0.00,Wunderground v.1.15,2013-06-21 17:31:00,
2013-06-21 12:37:00,90.4,68.6,29.76,South,184,20.0,29.0,49,0.00,,,0.00,Wunderground v.1.15,2013-06-21 17:37:00,
2013-06-21 12:43:00,90.3,68.5,29.76,SSW,195,20.0,23.0,49,0.00,,,0.00,Wunderground v.1.15,2013-06-21 17:43:00,
2013-06-21 12:46:00,90.8,69.0,29.76,SSW,193,19.0,23.0,49,0.00,,,0.00,Wunderground v.1.15,2013-06-21 17:46:00,
2013-06-21 12:47:00,91.0,68.6,29.76,South,188,18.0,23.0,48,0.00,,,0.00,Wunderground v.1.15,2013-06-21 17:47:00,
2013-06-21 12:49:00,91.5,70.2,29.76,South,188,18.0,25.0,50,0.00,,,0.00,Wunderground v.1.15,2013-06-21 17:49:00,
2013-06-21 12:52:00,92.5,69.3,29.76,South,178,18.0,26.0,47,0.00,,,0.00,Wunderground v.1.15,2013-06-21 17:52:00,
2013-06-21 12:54:00,92.4,68.6,29.76,South,170,19.0,27.0,46,0.00,,,0.00,Wunderground v.1.15,2013-06-21 17:54:00,
2013-06-21 13:01:00,91.5,68.4,29.76,South,172,22.0,28.0,47,0.00,,,0.00,Wunderground v.1.15,2013-06-21 18:01:00,
2013-06-21 13:06:00,91.9,68.2,29.76,SSW,200,21.0,28.0,46,0.00,,,0.00,Wunderground v.1.15,2013-06-21 18:06:00,
2013-06-21 13:14:00,91.7,68.6,29.75,South,185,21.0,30.0,47,0.00,,,0.00,Wunderground v.1.15,2013-06-21 18:14:00,
2013-06-21 13:20:00,92.4,68.6,29.76,South,184,20.0,20.0,46,0.00,,,0.00,Wunderground v.1.15,2013-06-21 18:20:00,
2013-06-21 13:25:00,92.8,68.3,29.75,South,180,21.0,29.0,45,0.00,,,0.00,Wunderground v.1.15,2013-06-21 18:25:00,
2013-06-21 13:27:00,92.9,68.4,29.75,SSW,198,21.0,29.0,45,0.00,,,0.00,Wunderground v.1.15,2013-06-21 18:27:00,
2013-06-21 13:29:00,92.9,68.4,29.75,South,178,21.0,29.0,45,0.00,,,0.00,Wunderground v.1.15,2013-06-21 18:29:00,
2013-06-21 13:34:00,93.2,68.0,29.76,SSW,208,21.0,30.0,44,0.00,,,0.00,Wunderground v.1.15,2013-06-21 18:34:00,
2013-06-21 13:39:00,93.0,67.9,29.75,South,181,22.0,30.0,44,0.00,,,0.00,Wunderground v.1.15,2013-06-21 18:39:00,
2013-06-21 13:45:00,93.2,67.4,29.75,South,188,21.0,33.0,43,0.00,,,0.00,Wunderground v.1.15,2013-06-21 18:45:00,
2013-06-21 13:46:00,93.2,67.4,29.75,South,187,21.0,33.0,43,0.00,,,0.00,Wunderground v.1.15,2013-06-21 18:46:00,
2013-06-21 13:47:00,93.1,67.3,29.75,South,188,21.0,33.0,43,0.00,,,0.00,Wunderground v.1.15,2013-06-21 18:47:00,
2013-06-21 13:48:00,93.1,67.3,29.75,South,170,22.0,33.0,43,0.00,,,0.00,Wunderground v.1.15,2013-06-21 18:48:00,
2013-06-21 13:49:00,93.1,67.3,29.75,South,170,22.0,33.0,43,0.00,,,0.00,Wunderground v.1.15,2013-06-21 18:49:00,
2013-06-21 13:54:00,93.5,67.6,29.75,South,178,23.0,33.0,43,0.00,,,0.00,Wunderground v.1.15,2013-06-21 18:54:00,
2013-06-21 14:00:00,93.2,68.0,29.75,South,169,19.0,23.0,44,0.00,,,0.00,Wunderground v.1.15,2013-06-21 19:00:00,
2013-06-21 14:05:00,93.2,68.7,29.75,SSW,194,18.0,23.0,45,0.00,,,0.00,Wunderground v.1.15,2013-06-21 19:05:00,
2013-06-21 14:11:00,93.7,67.8,29.74,South,189,18.0,20.0,43,0.00,,,0.00,Wunderground v.1.15,2013-06-21 19:11:00,
2013-06-21 14:17:00,94.2,67.6,29.74,South,186,22.0,31.0,42,0.00,,,0.00,Wunderground v.1.15,2013-06-21 19:17:00,
2013-06-21 14:23:00,94.3,67.7,29.74,SSW,212,23.0,32.0,42,0.00,,,0.00,Wunderground v.1.15,2013-06-21 19:23:00,
2013-06-21 14:27:00,94.9,68.2,29.73,South,174,21.0,32.0,42,0.00,,,0.00,Wunderground v.1.15,2013-06-21 19:27:00,
2013-06-21 14:32:00,94.5,67.9,29.73,South,173,20.0,29.0,42,0.00,,,0.00,Wunderground v.1.15,2013-06-21 19:32:00,
2013-06-21 14:38:00,93.2,68.0,29.74,South,180,21.0,31.0,44,0.00,,,0.00,Wunderground v.1.15,2013-06-21 19:38:00,
2013-06-21 14:44:00,93.3,68.1,29.74,South,176,21.0,26.0,44,0.00,,,0.00,Wunderground v.1.15,2013-06-21 19:44:00,
2013-06-21 14:50:00,93.1,67.3,29.74,SSW,192,21.0,21.0,43,0.00,,,0.00,Wunderground v.1.15,2013-06-21 19:50:00,
2013-06-21 14:55:00,93.0,68.5,29.73,SW,234,22.0,28.0,45,0.00,,,0.00,Wunderground v.1.15,2013-06-21 19:55:00,
2013-06-21 15:01:00,93.6,67.7,29.73,South,174,22.0,24.0,43,0.00,,,0.00,Wunderground v.1.15,2013-06-21 20:01:00,
2013-06-21 15:06:00,93.9,66.6,29.73,South,169,21.0,27.0,41,0.00,,,0.00,Wunderground v.1.15,2013-06-21 20:06:00,
2013-06-21 15:11:00,93.7,67.1,29.73,South,173,24.0,30.0,42,0.00,,,0.00,Wunderground v.1.15,2013-06-21 20:11:00,
2013-06-21 15:13:00,93.5,67.0,29.73,South,181,24.0,30.0,42,0.00,,,0.00,Wunderground v.1.15,2013-06-21 20:13:00,
2013-06-21 15:18:00,93.5,67.0,29.72,South,175,22.0,30.0,42,0.00,,,0.00,Wunderground v.1.15,2013-06-21 20:18:00,
2013-06-21 15:24:00,93.2,66.0,29.72,South,191,22.0,32.0,41,0.00,,,0.00,Wunderground v.1.15,2013-06-21 20:24:00,
2013-06-21 15:29:00,92.6,66.8,29.72,SSE,147,24.0,33.0,43,0.00,,,0.00,Wunderground v.1.15,2013-06-21 20:29:00,
2013-06-21 15:31:00,92.6,66.8,29.72,SSW,200,24.0,25.0,43,0.00,,,0.00,Wunderground v.1.15,2013-06-21 20:31:00,
2013-06-21 15:37:00,92.3,68.5,29.72,SSE,167,22.0,27.0,46,0.00,,,0.00,Wunderground v.1.15,2013-06-21 20:37:00,
2013-06-21 15:43:00,92.6,66.8,29.71,South,169,21.0,28.0,43,0.00,,,0.00,Wunderground v.1.15,2013-06-21 20:43:00,
2013-06-21 15:49:00,92.6,66.8,29.71,South,173,23.0,28.0,43,0.00,,,0.00,Wunderground v.1.15,2013-06-21 20:49:00,
2013-06-21 15:55:00,92.7,67.6,29.71,SSE,168,24.0,32.0,44,0.00,,,0.00,Wunderground v.1.15,2013-06-21 20:55:00,
2013-06-21 16:01:00,93.1,66.6,29.70,South,180,23.0,29.0,42,0.00,,,0.00,Wunderground v.1.15,2013-06-21 21:01:00,
2013-06-21 16:06:00,93.5,67.0,29.70,SSE,160,24.0,30.0,42,0.00,,,0.00,Wunderground v.1.15,2013-06-21 21:06:00,
2013-06-21 16:09:00,93.8,67.2,29.70,South,182,23.0,30.0,42,0.00,,,0.00,Wunderground v.1.15,2013-06-21 21:09:00,
2013-06-21 16:14:00,94.3,67.0,29.69,South,173,25.0,38.0,41,0.00,,,0.00,Wunderground v.1.15,2013-06-21 21:14:00,
2013-06-21 16:20:00,94.5,67.2,29.69,SSW,200,26.0,26.0,41,0.00,,,0.00,Wunderground v.1.15,2013-06-21 21:20:00,
2013-06-21 16:26:00,94.2,66.9,29.69,SSW,197,24.0,31.0,41,0.00,,,0.00,Wunderground v.1.15,2013-06-21 21:26:00,
2013-06-21 16:32:00,93.1,66.6,29.69,South,174,24.0,32.0,42,0.00,,,0.00,Wunderground v.1.15,2013-06-21 21:32:00,
2013-06-21 16:38:00,92.8,67.7,29.69,South,173,24.0,32.0,44,0.00,,,0.00,Wunderground v.1.15,2013-06-21 21:38:00,
2013-06-21 16:44:00,93.7,67.8,29.69,South,175,25.0,38.0,43,0.00,,,0.00,Wunderground v.1.15,2013-06-21 21:44:00,
2013-06-21 16:50:00,93.5,67.0,29.70,South,175,23.0,23.0,42,0.00,,,0.00,Wunderground v.1.15,2013-06-21 21:50:00,
2013-06-21 16:56:00,93.4,67.6,29.69,South,171,23.0,33.0,43,0.00,,,0.00,Wunderground v.1.15,2013-06-21 21:56:00,
2013-06-21 17:01:00,93.1,69.3,29.69,South,178,24.0,28.0,46,0.00,,,0.00,Wunderground v.1.15,2013-06-21 22:01:00,
2013-06-21 17:06:00,93.0,69.2,29.69,SSE,168,25.0,36.0,46,0.00,,,0.00,Wunderground v.1.15,2013-06-21 22:06:00,
2013-06-21 17:12:00,93.4,70.2,29.70,South,180,24.0,27.0,47,0.00,,,0.00,Wunderground v.1.15,2013-06-21 22:12:00,
2013-06-21 17:18:00,93.2,69.3,29.70,SSW,198,23.0,29.0,46,0.00,,,0.00,Wunderground v.1.15,2013-06-21 22:18:00,
2013-06-21 17:24:00,92.1,69.6,29.70,SSE,167,22.0,31.0,48,0.00,,,0.00,Wunderground v.1.15,2013-06-21 22:24:00,
2013-06-21 17:30:00,91.3,69.5,29.70,South,187,23.0,23.0,49,0.00,,,0.00,Wunderground v.1.15,2013-06-21 22:30:00,
2013-06-21 17:35:00,91.0,69.8,29.70,South,182,22.0,27.0,50,0.00,,,0.00,Wunderground v.1.15,2013-06-21 22:35:00,
2013-06-21 17:41:00,91.5,70.2,29.70,South,186,22.0,23.0,50,0.00,,,0.00,Wunderground v.1.15,2013-06-21 22:41:00,
2013-06-21 17:46:00,91.2,70.5,29.70,South,179,21.0,32.0,51,0.00,,,0.00,Wunderground v.1.15,2013-06-21 22:46:00,
2013-06-21 17:52:00,91.2,70.0,29.70,South,182,23.0,32.0,50,0.00,,,0.00,Wunderground v.1.15,2013-06-21 22:52:00,
2013-06-21 17:57:00,91.2,70.0,29.69,South,176,25.0,32.0,50,0.00,,,0.00,Wunderground v.1.15,2013-06-21 22:57:00,
2013-06-21 18:02:00,90.9,70.3,29.70,South,188,23.0,27.0,51,0.00,,,0.00,Wunderground v.1.15,2013-06-21 23:02:00,
2013-06-21 18:08:00,90.3,70.8,29.70,South,169,20.0,27.0,53,0.00,,,0.00,Wunderground v.1.15,2013-06-21 23:08:00,
2013-06-21 18:14:00,90.2,70.8,29.70,South,185,20.0,29.0,53,0.00,,,0.00,Wunderground v.1.15,2013-06-21 23:14:00,
2013-06-21 18:19:00,90.1,71.2,29.70,South,186,22.0,29.0,54,0.00,,,0.00,Wunderground v.1.15,2013-06-21 23:19:00,
2013-06-21 18:25:00,89.9,70.5,29.70,South,182,20.0,28.0,53,0.00,,,0.00,Wunderground v.1.15,2013-06-21 23:25:00,
2013-06-21 18:30:00,89.6,70.2,29.70,South,172,21.0,22.0,53,0.00,,,0.00,Wunderground v.1.15,2013-06-21 23:30:00,
2013-06-21 18:36:00,89.8,70.4,29.70,South,180,20.0,25.0,53,0.00,,,0.00,Wunderground v.1.15,2013-06-21 23:36:00,
2013-06-21 18:41:00,89.6,70.2,29.71,South,190,23.0,30.0,53,0.00,,,0.00,Wunderground v.1.15,2013-06-21 23:41:00,
2013-06-21 18:47:00,89.3,71.0,29.71,South,182,23.0,30.0,55,0.00,,,0.00,Wunderground v.1.15,2013-06-21 23:47:00,
2013-06-21 18:52:00,89.1,70.8,29.71,South,185,21.0,26.0,55,0.00,,,0.00,Wunderground v.1.15,2013-06-21 23:52:00,
2013-06-21 18:58:00,89.1,71.4,29.71,South,184,19.0,26.0,56,0.00,,,0.00,Wunderground v.1.15,2013-06-21 23:58:00,
2013-06-21 19:03:00,88.8,71.1,29.71,South,188,18.0,20.0,56,0.00,,,0.00,Wunderground v.1.15,2013-06-22 00:03:00,
2013-06-21 19:09:00,88.4,71.2,29.72,South,180,18.0,26.0,57,0.00,,,0.00,Wunderground v.1.15,2013-06-22 00:09:00,
2013-06-21 19:14:00,88.2,71.6,29.71,SSE,160,17.0,22.0,58,0.00,,,0.00,Wunderground v.1.15,2013-06-22 00:14:00,
2013-06-21 19:20:00,88.3,71.1,29.71,SSE,161,16.0,24.0,57,0.00,,,0.00,Wunderground v.1.15,2013-06-22 00:20:00,
2013-06-21 19:26:00,88.4,71.2,29.71,SSE,162,18.0,24.0,57,0.00,,,0.00,Wunderground v.1.15,2013-06-22 00:26:00,
2013-06-21 19:31:00,88.7,71.0,29.71,South,174,17.0,18.0,56,0.00,,,0.00,Wunderground v.1.15,2013-06-22 00:31:00,
2013-06-21 19:37:00,88.8,71.1,29.71,South,179,16.0,28.0,56,0.00,,,0.00,Wunderground v.1.15,2013-06-22 00:37:00,
2013-06-21 19:42:00,88.6,70.9,29.71,South,173,20.0,30.0,56,0.00,,,0.00,Wunderground v.1.15,2013-06-22 00:42:00,
2013-06-21 19:48:00,88.2,71.0,29.71,South,180,20.0,30.0,57,0.00,,,0.00,Wunderground v.1.15,2013-06-22 00:48:00,
2013-06-21 19:53:00,88.0,70.9,29.72,South,188,20.0,26.0,57,0.00,,,0.00,Wunderground v.1.15,2013-06-22 00:53:00,
2013-06-21 19:59:00,87.9,71.3,29.72,SSE,167,22.0,26.0,58,0.00,,,0.00,Wunderground v.1.15,2013-06-22 00:59:00,
2013-06-21 20:04:00,87.7,71.6,29.72,South,180,21.0,25.0,59,0.00,,,0.00,Wunderground v.1.15,2013-06-22 01:04:00,
2013-06-21 20:10:00,87.5,71.4,29.71,South,173,17.0,22.0,59,0.00,,,0.00,Wunderground v.1.15,2013-06-22 01:10:00,
2013-06-21 20:15:00,87.4,71.8,29.72,South,185,17.0,26.0,60,0.00,,,0.00,Wunderground v.1.15,2013-06-22 01:15:00,
2013-06-21 20:21:00,87.2,71.6,29.72,South,185,17.0,22.0,60,0.00,,,0.00,Wunderground v.1.15,2013-06-22 01:21:00,
2013-06-21 20:26:00,87.0,71.9,29.72,South,177,17.0,22.0,61,0.00,,,0.00,Wunderground v.1.15,2013-06-22 01:26:00,
2013-06-21 20:32:00,86.8,71.7,29.72,SSW,192,17.0,20.0,61,0.00,,,0.00,Wunderground v.1.15,2013-06-22 01:32:00,
2013-06-21 20:38:00,86.5,71.5,29.72,SSE,166,15.0,21.0,61,0.00,,,0.00,Wunderground v.1.15,2013-06-22 01:38:00,
2013-06-21 20:43:00,86.3,71.3,29.72,South,182,16.0,22.0,61,0.00,,,0.00,Wunderground v.1.15,2013-06-22 01:43:00,
2013-06-21 20:49:00,86.2,71.2,29.72,South,173,16.0,22.0,61,0.00,,,0.00,Wunderground v.1.15,2013-06-22 01:49:00,
2013-06-21 20:55:00,86.0,71.5,29.72,South,169,16.0,19.0,62,0.00,,,0.00,Wunderground v.1.15,2013-06-22 01:55:00,
2013-06-21 21:01:00,85.7,71.7,29.72,South,189,16.0,19.0,63,0.00,,,0.00,Wunderground v.1.15,2013-06-22 02:01:00,
2013-06-21 21:06:00,85.6,71.6,29.72,South,184,16.0,23.0,63,0.00,,,0.00,Wunderground v.1.15,2013-06-22 02:06:00,
2013-06-21 21:12:00,85.3,71.3,29.72,SSW,195,15.0,21.0,63,0.00,,,0.00,Wunderground v.1.15,2013-06-22 02:12:00,
2013-06-21 21:17:00,85.2,71.6,29.72,South,171,15.0,21.0,64,0.00,,,0.00,Wunderground v.1.15,2013-06-22 02:17:00,
2013-06-21 21:23:00,85.1,71.5,29.72,SSE,163,17.0,23.0,64,0.00,,,0.00,Wunderground v.1.15,2013-06-22 02:23:00,
2013-06-21 21:29:00,84.9,71.4,29.72,South,182,17.0,28.0,64,0.00,,,0.00,Wunderground v.1.15,2013-06-22 02:29:00,
2013-06-21 21:34:00,84.9,71.4,29.72,South,176,17.0,28.0,64,0.00,,,0.00,Wunderground v.1.15,2013-06-22 02:34:00,
2013-06-21 21:40:00,84.7,71.2,29.72,South,179,17.0,17.0,64,0.00,,,0.00,Wunderground v.1.15,2013-06-22 02:40:00,
2013-06-21 21:45:00,84.5,71.4,29.72,South,169,17.0,22.0,65,0.00,,,0.00,Wunderground v.1.15,2013-06-22 02:45:00,
2013-06-21 21:51:00,84.4,71.3,29.72,South,169,17.0,21.0,65,0.00,,,0.00,Wunderground v.1.15,2013-06-22 02:51:00,
2013-06-21 21:57:00,84.2,71.2,29.73,South,180,18.0,23.0,65,0.00,,,0.00,Wunderground v.1.15,2013-06-22 02:57:00,
2013-06-21 22:02:00,84.1,71.1,29.73,South,170,18.0,23.0,65,0.00,,,0.00,Wunderground v.1.15,2013-06-22 03:02:00,
2013-06-21 22:08:00,83.8,71.2,29.73,SSE,163,17.0,23.0,66,0.00,,,0.00,Wunderground v.1.15,2013-06-22 03:08:00,
2013-06-21 22:14:00,83.7,71.1,29.73,SSW,192,17.0,24.0,66,0.00,,,0.00,Wunderground v.1.15,2013-06-22 03:14:00,
2013-06-21 22:19:00,83.6,71.0,29.74,South,180,17.0,24.0,66,0.00,,,0.00,Wunderground v.1.15,2013-06-22 03:19:00,
2013-06-21 22:24:00,83.5,70.9,29.74,South,184,18.0,22.0,66,0.00,,,0.00,Wunderground v.1.15,2013-06-22 03:24:00,
2013-06-21 22:30:00,83.3,70.3,29.75,South,182,19.0,19.0,65,0.00,,,0.00,Wunderground v.1.15,2013-06-22 03:30:00,
2013-06-21 22:36:00,83.2,70.2,29.75,SSE,168,18.0,24.0,65,0.00,,,0.00,Wunderground v.1.15,2013-06-22 03:36:00,
2013-06-21 22:42:00,83.0,70.0,29.75,SSE,149,17.0,22.0,65,0.00,,,0.00,Wunderground v.1.15,2013-06-22 03:42:00,
2013-06-21 22:48:00,82.8,69.4,29.75,SSE,167,17.0,22.0,64,0.00,,,0.00,Wunderground v.1.15,2013-06-22 03:48:00,
2013-06-21 22:53:00,82.7,69.3,29.75,SSE,161,18.0,21.0,64,0.00,,,0.00,Wunderground v.1.15,2013-06-22 03:53:00,
2013-06-21 22:59:00,82.4,69.0,29.75,South,169,17.0,21.0,64,0.00,,,0.00,Wunderground v.1.15,2013-06-22 03:59:00,
2013-06-21 23:01:00,82.3,68.9,29.76,South,173,16.0,18.0,64,0.00,,,0.00,Wunderground v.1.15,2013-06-22 04:01:00,
2013-06-21 23:02:00,82.3,68.9,29.75,SSE,158,16.0,18.0,64,0.00,,,0.00,Wunderground v.1.15,2013-06-22 04:02:00,
2013-06-21 23:04:00,82.3,68.4,29.76,SSE,165,15.0,18.0,63,0.00,,,0.00,Wunderground v.1.15,2013-06-22 04:04:00,
2013-06-21 23:08:00,82.2,68.3,29.76,South,177,16.0,22.0,63,0.00,,,0.00,Wunderground v.1.15,2013-06-22 04:08:00,
2013-06-21 23:09:00,82.1,68.3,29.75,South,176,16.0,22.0,63,0.00,,,0.00,Wunderground v.1.15,2013-06-22 04:09:00,
2013-06-21 23:15:00,82.0,67.7,29.76,South,178,16.0,20.0,62,0.00,,,0.00,Wunderground v.1.15,2013-06-22 04:15:00,
2013-06-21 23:21:00,81.8,68.0,29.76,SSE,162,15.0,16.0,63,0.00,,,0.00,Wunderground v.1.15,2013-06-22 04:21:00,
2013-06-21 23:27:00,81.7,68.3,29.76,South,178,15.0,19.0,64,0.00,,,0.00,Wunderground v.1.15,2013-06-22 04:27:00,
2013-06-21 23:32:00,81.4,68.9,29.76,SSE,162,15.0,20.0,66,0.00,,,0.00,Wunderground v.1.15,2013-06-22 04:32:00,
2013-06-21 23:38:00,81.2,69.2,29.76,SSE,159,16.0,22.0,67,0.00,,,0.00,Wunderground v.1.15,2013-06-22 04:38:00,
2013-06-21 23:44:00,81.1,69.1,29.76,SSE,162,17.0,21.0,67,0.00,,,0.00,Wunderground v.1.15,2013-06-22 04:44:00,
2013-06-21 23:49:00,80.9,69.3,29.76,South,171,16.0,21.0,68,0.00,,,0.00,Wunderground v.1.15,2013-06-22 04:49:00,
2013-06-21 23:55:00,80.7,69.2,29.76,SSE,168,16.0,23.0,68,0.00,,,0.00,Wunderground v.1.15,2013-06-22 04:55:00,